Location: Seasalter
(51.3333°N, 1.0167°E)
Time: 11:39:07
(UTC+00:00)

Envisat - Pass Details

Date: 26 September 2023
Orbit: 762 x 764 km, 98.3° (Epoch: 10 December)

Event Time Altitude Azimuth Distance (km) Brightness Sun altitude
Rises 03:48:08 0° 14° (NNE) 3,245 6.8 -19.0°
Reaches altitude 10° 03:50:27 10° 15° (NNE) 2,315 6.0 -18.7°
Maximum altitude 03:55:34 85° 104° (ESE) 775 3.0 -18.0°
Enters shadow 04:00:24 11° 194° (SSW) 2,202 5.0 -17.3°
